sat.trackr.live / text

‹ back to catalog

LEGION 5

NORAD 62900 · 2025-025A

PAYLOAD ACTIVE UNKNOWN

§ Identity

Operator
Country
US
Launch date
2025-02-04
Launch site
AFETR
Launch vehicle
Mass (kg)
RCS (m²)

External: N2YO · Heavens-Above · Gunter

§ Orbital elements

Epoch: 2026-05-25T04:46:54.590016Z

Period
95.00 min
Inclination
45.0021°
Eccentricity
0.0007932
Mean motion
15.15760499 rev/d
Perigee alt
513.2 km
Apogee alt
524.1 km
Semi-major
6,896.8 km
B*
2.0996e-4
RAAN
64.6608°
Arg perigee
7.5217°
Mean anomaly
352.5780°
Rev number
7,100

§ Raw data

LEGION 51 62900U 25025A   26145.19924294  .00003813  00000+0  20996-3 0  99922 62900  45.0021  64.6608 0007932   7.5217 352.5780 15.15760499 71009

JSON: /api/v1/satellites/62900 · /tle

For live sub-satellite position, see the globe view (requires WebGL).

§ Visibility from observer

Set your observer location to see the next 7 days of passes ≥ 10°. The values pass through the URL so the page stays shareable.

No JS? Fill the form by hand. The geolocation button needs JavaScript.